Regional Weather Roundup
Issued by NWS State College, PA

Home | Current Version | Previous Version | Graphics & Text | Print | Product List | Glossary On
Versions: 1 2 3 4 5 6 7 8 9 10 11 12 13 14 15 16 17 18 19 20 21 22 23 24 25 26 27 28 29 30 31 32 33 34 35 36 37 38 39 40 41 42 43 44 45 46 47 48 49 50
000
ASUS41 KCTP 281203
RWRCTP

REGIONAL WEATHER ROUNDUP
NATIONAL WEATHER SERVICE STATE COLLEGE PA
800 AM EDT TUE APR 28 2015

Note: "fair" indicates few or no clouds below 12,000 feet with no
significant weather and/or obstructions to visibility.

* = STATION THAT DOES NOT REPORT PRECIPITATION /E.G. RAIN...SNOW...ETC/
    THUNDER OR FOG.

PAZ002>004-007>009-013>016-020>023-029>032-281300-
WESTERN PENNSYLVANIA

CITY           SKY/WX    TMP DP  RH WIND       PRES   REMARKS
ERIE           SUNNY     40  36  86 W5        30.06R
MEADVILLE      SUNNY     38  34  85 NW3       30.03S
FRANKLIN*      SUNNY     39  32  75 NW6       30.04S
NEW CASTLE     FAIR      40  36  86 NW3       30.07R
BEAVER COUNTY  SUNNY     39  36  87 NW7       30.05R
BUTLER*        SUNNY     39  36  87 W5        30.05R
PITTSBURGH INT MOSUNNY   41  37  86 W6        30.05R
PITTSBURGH     SUNNY     41  34  76 NW3       30.04R
INDIANA*       SUNNY     41  39  93 W3        30.06R FOG
LATROBE        MOSUNNY   41  41 100 SW7       30.06R
WASHINGTON CO* SUNNY     39  36  87 W7        30.08R
$$

PAZ004>006-010>012-017>019-024>028-033>037-041-042-045-046-049>053-281300-
CENTRAL PENNSYLVANIA

CITY           SKY/WX    TMP DP  RH WIND       PRES   REMARKS
BRADFORD       SUNNY     39  34  82 NW7       29.98R
DUBOIS         SUNNY     42  35  76 NW6       29.99R
CLEARFIELD     SUNNY     44  35  70 VRB3      29.98R
JOHNSTOWN      PTSUNNY   38  35  89 W6        29.98R
ALTOONA        MOSUNNY   44  35  70 NW6       29.98R
STATE COLLEGE  MOSUNNY   45  37  76 CALM      29.96R
WILLIAMSPORT   SUNNY     51  38  60 NW15      29.92R
SELINSGROVE    SUNNY     51  39  63 NW9       29.92R
FT INDIANTOWN  SUNNY     51  38  60 NW10G20   29.89R
CAPITAL CITY   SUNNY     51  38  60 NW12      29.92R
HARRISBURG     MOSUNNY   51  37  58 NW14      29.90R
YORK           SUNNY     50  38  63 NW12G20   29.91R
$$

PAZ038>040-043-044-047-048-054-055-060>062-067>071-281300-
EASTERN PENNSYLVANIA

CITY           SKY/WX    TMP DP  RH WIND       PRES   REMARKS
SCRANTON       CLOUDY    47  39  74 N8        29.87R
MOUNT POCONO   PTSUNNY   44  37  76 NW12      29.82R
ALLENTOWN      MOSUNNY   52  40  63 NW8       29.85R
QUAKERTOWN*    SUNNY     50  39  66 N12       29.85R
READING        SUNNY     52  40  63 N10       29.86R
LANCASTER      SUNNY     50  40  68 NW14      29.87R
COATESVILLE    SUNNY     50  39  66 NW10      29.86R
POTTSTOWN      SUNNY     51  40  65 NW13      29.86R
BLUE BELL      SUNNY     52  41  66 NW6       29.83R
DOYLESTOWN     SUNNY     50  39  66 N13G21    29.82R
WILLOW GROVE   NOT AVBL
NORTH PHILA    SUNNY     54  38  54 NW15      29.84R
PHILADELPHIA   MOSUNNY   53  39  59 NW16      29.84R
$$



USA.gov is the U.S. government's official web portal to all federal, state and local government web resources and services.